TimeCDT,TemperatureF,Dew PointF,Humidity,Sea Level PressureIn,VisibilityMPH,Wind Direction,Wind SpeedMPH,Gust SpeedMPH,PrecipitationIn,Events,Conditions,WindDirDegrees,DateUTC
12:53 AM,84.0,61.0,46,29.84,10.0,SSE,5.8,-,N/A,,Clear,160,2013-08-31 05:53:00
1:53 AM,84.0,61.0,46,29.83,10.0,South,5.8,-,N/A,,Clear,190,2013-08-31 06:53:00
2:53 AM,84.0,61.0,46,29.84,10.0,Calm,Calm,-,N/A,,Clear,0,2013-08-31 07:53:00
3:53 AM,82.9,61.0,47,29.84,10.0,SSE,4.6,-,N/A,,Clear,160,2013-08-31 08:53:00
4:53 AM,80.1,61.0,52,29.85,10.0,SSE,6.9,-,N/A,,Clear,160,2013-08-31 09:53:00
5:53 AM,78.1,62.1,58,29.84,10.0,South,4.6,-,N/A,,Clear,180,2013-08-31 10:53:00
6:53 AM,78.1,63.0,60,29.85,10.0,Calm,Calm,-,N/A,,Clear,0,2013-08-31 11:53:00
7:53 AM,79.0,64.0,60,29.87,10.0,SSW,5.8,-,N/A,,Clear,200,2013-08-31 12:53:00
8:53 AM,82.9,64.9,54,29.88,10.0,South,5.8,-,N/A,,Clear,180,2013-08-31 13:53:00
9:53 AM,87.1,64.9,48,29.88,10.0,Calm,Calm,-,N/A,,Clear,0,2013-08-31 14:53:00
10:53 AM,93.9,64.9,38,29.87,10.0,Calm,Calm,-,N/A,,Clear,0,2013-08-31 15:53:00
11:53 AM,100.0,63.0,29,29.86,10.0,South,9.2,-,N/A,,Clear,180,2013-08-31 16:53:00
12:53 PM,100.0,61.0,28,29.83,10.0,Variable,5.8,-,N/A,,Clear,0,2013-08-31 17:53:00
1:53 PM,102.0,59.0,24,29.81,10.0,Variable,3.5,-,N/A,,Clear,0,2013-08-31 18:53:00
2:53 PM,100.0,60.1,27,29.80,10.0,East,9.2,-,N/A,,Mostly Cloudy,100,2013-08-31 19:53:00
3:53 PM,100.0,59.0,26,29.78,10.0,East,5.8,-,N/A,,Clear,90,2013-08-31 20:53:00
4:53 PM,100.9,59.0,25,29.77,10.0,East,5.8,-,N/A,,Clear,80,2013-08-31 21:53:00
5:53 PM,102.0,59.0,24,29.76,10.0,SE,9.2,-,N/A,,Clear,140,2013-08-31 22:53:00
6:53 PM,100.0,59.0,26,29.76,10.0,East,12.7,-,N/A,,Partly Cloudy,100,2013-08-31 23:53:00
7:53 PM,97.0,60.1,29,29.76,10.0,SE,9.2,-,N/A,,Clear,140,2013-09-01 00:53:00
8:53 PM,93.9,61.0,33,29.77,10.0,SE,6.9,-,N/A,,Clear,130,2013-09-01 01:53:00
9:53 PM,90.0,62.1,39,29.78,10.0,SE,5.8,-,N/A,,Clear,140,2013-09-01 02:53:00
10:53 PM,90.0,61.0,38,29.78,10.0,SE,9.2,-,N/A,,Clear,140,2013-09-01 03:53:00
11:53 PM,88.0,61.0,40,29.77,10.0,SSE,6.9,-,N/A,,Clear,150,2013-09-01 04:53:00